STARLINK-35893, 66565

Orbit data source: Space-Track

STARLINK-35893, 66565 is a payload satellite owned by SpaceX/Seattle (US) in LEO that was launched on Fri, 21 Nov 2025 UTC via an FALCON 9 launch vehicle from the Air Force Eastern Test Range (AFETR). Payload-class satellites include a variety of spacecraft equipped with specific instruments for various scientific and technological missions. These include communications satellites like Starlink; space stations such as the ISS; scientific satellites like the Hubble; Earth observation satellites from companies like Planet Labs, Umbra, and HawkEye 360; GPS; miniature CubeSats for education and research; and military/defense satellites.

Loading next visibility...
Identifier
66565, 2025-268J
Orbit
LEO
Country
Flag of USUS
Related business
Manufacturer
SpaceX/Seattle
Mission
Operational Commercial Communications
Bus & Motor
STARLINK V2MO, Unknown motor
Mass
575 kg wet, ~530 kg dry
Launch date (UTC)
2025-11-21 (7 months ago)
Launch vehicle
FALCON 9
Launch site
Air Force Eastern Test Range (AFETR)
Object type
Payload
Rocket body
Debris
Shape & HBR
Box + 2 Pan, 17.7 m
Radar Cross Section
36.964 m², Large (>1 m²)

Expand to show TLE details & history
Last TLE update: 15 hours ago

TLE from 15 hours ago
0 STARLINK-35893
1 66565U 25268J   26171.22556817  .00013063  00000-0  48319-3 0  9995
2 66565  43.0001 127.7882 0001101 271.3232  88.7493 15.27592806 33646
Epoch: 2026-06-20T05:24Z
TLE epoch observation values (Epoch: 2026-06-20T05:24:49.089Z)
Latitude
-0.00007°
Longitude
138.14034°
Altitude
482.77 km
Speed
7.626 km/s
True Right ascension
08h 31m 09s
True Declination
0° 00' 00"
Sunlit
Object was in daylight at epoch
Visualization orbit readout
Latitude
Unknown
Longitude
Unknown
Altitude
Unknown
Speed
Unknown
Apparent Right ascension
Unknown
Apparent Declination
Unknown
Sunlit
N/A
Visualization observer readout
Local Sidereal Time
07:11:48
Azimuth
Unknown
Elevation
Unknown
Doppler factor
Unknown
Orbital elements
Apogee altitude
485.712 km
Perigee altitude
484.2 km
Semi-major axis
6,863.093 km
Eccentricity
0.00011
Inclination
43.0001°
RAAN
127.7882°
Arg. of periapsis
271.3232°
True anomaly
88.76191°
Mean anomaly
88.7493°
Eccentric anomaly
88.75561°
Mean motion
3.81736 °/min
Orbital period
94.31 mins
BSTAR
0.00048319
Loading maneuver chart data...
Computing Atmospheric mass density...
Loading historical data...
Loading historical data...
Loading historical data...
Loading historical data...
Loading historical data...
Loading historical data...
Loading historical data...

Documentation

Showing up to 5 results
|